{"data":{"norad_id":57858,"epoch":"2026-05-25T03:02:58.016832Z","epoch_age_seconds":64906,"freshness":"FRESH","line1":"1 57858U 23141U   26145.12706038  .00001558  00000+0  64720-4 0  9990","line2":"2 57858  53.1619 288.8832 0001224 106.2318 253.8817 15.30197933152035","mean_motion":15.30197933,"eccentricity":0.0001224,"inclination_deg":53.1619,"raan_deg":288.8832,"arg_perigee_deg":106.2318,"mean_anomaly_deg":253.8817,"bstar":6.472e-5,"rev_number":15203,"period_min":94.105472824475,"perigee_km":474.38239006698,"apogee_km":476.0600921644,"semimajor_km":6853.3582411157,"source":"CELESTRAK","updated_at":"2026-05-25T13:38:18.417037Z"}}